Regional Weather Roundup
Issued by NWS

Home | Current Version | Previous Version | Text Only | Print | Product List | Glossary On
Versions: 1 2 3 4 5 6 7 8 9 10 11 12 13 14 15 16 17 18 19 20 21 22 23 24 25 26 27 28 29 30 31 32 33 34 35 36 37 38 39 40 41 42 43 44 45 46 47 48 49 50
578
ASUS43 KMKX 210300
RWRWI

WISCONSIN REGIONAL WEATHER ROUNDUP
NATIONAL WEATHER SERVICE MILWAUKEE/SULLIVAN WI
900 PM CST MON FEB 20 2017

NOTE: "FAIR" INDICATES FEW OR NO CLOUDS BELOW 12,000 FEET WITH NO
SIGNIFICANT WEATHER AND/OR OBSTRUCTIONS TO VISIBILITY.

WIZ001-002-006>008-014>016-023>028-210400-
NORTHWEST WISCONSIN

CITY           SKY/WX    TMP DP  RH WIND       PRES   REMARKS
SUPERIOR ARPT  CLOUDY    36  36 100 CALM      29.62S FOG
ASHLAND        CLOUDY    50  48  93 S10G20    29.63F
HAYWARD        LGT RAIN  50  48  93 S8        29.66F
SIREN          CLOUDY    50  49  97 SW10      29.65F
CUMBERLAND     FOG       46  45  93 S8        29.68F VSB 1/4
RICE LAKE      LGT RAIN  49  48  97 CALM      29.70F
CHETEK         CLOUDY    50  50 100 S6        29.70S
LADYSMITH      RAIN      51  50  98 S9        29.72F
EAU CLAIRE     LGT RAIN  52  51  97 S12       29.69F
MENOMONIE      CLOUDY    53  53 100 S10       29.71F
NEW RICHMOND   CLOUDY    51  51 100 SW10G18   29.69S FOG
OSCEOLA        CLOUDY    52  52 100 S12       29.69F
$$

WIZ003>005-009-010-017-018-210400-
NORTH CENTRAL WISCONSIN

CITY           SKY/WX    TMP DP  RH WIND       PRES   REMARKS
MANITOWISH WTR LGT RAIN  44  44 100 S9        29.72S
ARBOR VITAE    LGT RAIN  46  44  95 S12G18    29.74R
WOODRUFF       LGT RAIN  46  44  95 S12G18    29.74R
RHINELANDER    LGT RAIN  48  48 100 S15G21    29.77R FOG
EAGLE RIVER    RAIN      46  46 100 S12G21    29.75R
LAND O LAKES   LGT RAIN  46  45  99 S12       29.76R
PHILLIPS       LGT RAIN  48  48 100 S10       29.72F
TOMAHAWK       LGT RAIN  46  45  97 S5        29.77R
MEDFORD        LGT RAIN  47  47  99 S8        29.76F VSB 1/4
MERRILL        NOT AVBL
$$

WIZ029-030-035-036-043>047-210400-
CENTRAL WISCONSIN

CITY           SKY/WX    TMP DP  RH WIND       PRES   REMARKS
WAUSAU         RAIN      47  47 100 S9        29.78R FOG
MOSINEE        NOT AVBL
MARSHFIELD     LGT RAIN  51  50  96 S8        29.77F VSB 3/4
STEVENS POINT  LGT RAIN  47  47 100 S12       29.81S
WAUPACA        LGT RAIN  50  48  93 S6        29.83R
WAUTOMA        RAIN      51  50  96 S8        29.84R FOG
WISC RAPIDS    LGT RAIN  54  54 100 SW12      29.82R FOG
CAMP DOUGLAS   CLOUDY    57  55  94 S9        29.80S
$$

WIZ011>013-019>022-031-037>040-048>050-210400-
NORTHEAST WISCONSIN

CITY           SKY/WX    TMP DP  RH WIND       PRES   REMARKS
ANTIGO         LGT RAIN  43  43 100 S23G29    29.79S
SHAWANO        DRIZZLE   50  46  88 S8        29.81F
OCONTO         CLOUDY    44  40  86 S10G16    29.84F
STURGEON BAY   LGT RAIN  47  39  74 SE20G28   29.85F
GREEN BAY      LGT RAIN  51  46  83 SE20      29.83F
MANITOWOC      NOT AVBL
APPLETON       LGT RAIN  48  41  76 S13G21    29.82F
CLINTONVILLE   DRIZZLE   46  45  93 S7        29.82S
OSHKOSH        CLOUDY    51  45  79 S12       29.82F
$$

WIZ032>034-041-042-053>061-210400-
SOUTHWEST WISCONSIN

CITY           SKY/WX    TMP DP  RH WIND       PRES   REMARKS
LA CROSSE      LGT RAIN  56  54  93 S16       29.78S
SPARTA         LGT RAIN  55  54  98 S7        29.80F
VIROQUA        CLOUDY    55  55 100 S15       29.81F
BOSCOBEL       CLOUDY    58  56  93 S6        29.84F FOG
PRAIRIE DU CHI CLOUDY    55  54  96 SW3       29.84S
PLATTEVILLE    CLOUDY    55  55 100 S5        29.87R
$$

WIZ056-057-062-063-064-067-068-210400-
SOUTH CENTRAL WISCONSIN

CITY           SKY/WX    TMP DP  RH WIND       PRES   REMARKS
REEDSBURG      CLOUDY    56  56 100 SW9       29.84S
BARABOO/DELLS  RAIN      55  53  93 SW10      29.85R
LONE ROCK      NOT AVBL
MINERAL POINT  CLOUDY    55  55 100 SW8       29.87R FOG
MADISON        LGT RAIN  57  52  83 S9        29.86R
MIDDLETON        N/A     58  55  89 SW10      29.87R
WATERTOWN      CLOUDY    55  49  81 S3        29.87R
MONROE         RAIN      55  52  88 S9        29.88F
JANESVILLE     CLOUDY    63  50  63 S16G26    29.87S
$$

WIZ051-052-058>065-066-070>072-210400-
SOUTHEAST WISCONSIN

CITY           SKY/WX    TMP DP  RH WIND       PRES   REMARKS
MILWAUKEE      CLOUDY    58  42  55 S20G30    29.91F
WAUKESHA       CLOUDY    55  43  62 SE17      29.90F
MILWAUKEE/TIMM CLOUDY    57  39  51 S17G24    29.90F
RACINE         CLOUDY    51  39  63 S17G25    29.93F
KENOSHA        CLOUDY    57  43  59 S14       29.91F
FOND DU LAC    LGT RAIN  54  44  69 S13       29.83F
SHEBOYGAN      CLOUDY    48  40  73 S17G28    29.89F
WEST BEND      CLOUDY    55  43  62 S14G21    29.88F
JUNEAU         CLOUDY    53  47  79 SE13      29.87S
$$

LSZ147-162-210400-
LAKE SUPERIOR

STATION/POSITION TIME  TEMP    WIND        PRES    WAVE
                       AIR SEA DIR/SP/G            HT/PER
                 (UTC) (F)     (DEG/KT/KT) (MB)    (FT/S)
DEVILS ISLAND    0200   47     190/  7/  8 1003.2F
PORT WING        0230   35     340/  2/  2 1003.0F
SAXON HARBOR     0240   52     200/  9/ 18 1004.1R
$$

LMZ867-665-643>646-210400-
LAKE MICHIGAN

STATION/POSITION TIME  TEMP    WIND        PRES    WAVE
                       AIR SEA DIR/SP/G            HT/PER
                 (UTC) (F)     (DEG/KT/KT) (MB)    (FT/S)
CHAMBERS ISLAND  0240   46     120/ 11/ 22 1010.2F
NORTHPORT PIER   0240   42     150/ 15/ 19 1011.5F
SISTER BAY       0205   43     140/ 17/ 28   N/A
KEWAUNEE LAKESHO 0230   38     180/  7/  8 1012.1F
SHEBOYGAN LAKESH 0200   44     160/ 18/ 19 1013.4F
PORT WASHINGTON  0240   43     180/  6/  7 1013.9F
MILWAUKEE LAKESH 0230   45     150/ 16/ 18   N/A
KENOSHA   LAKESH 0200   44     170/ 18/ 21 1013.5
$$

TC  - TEMPERATURE IN CELSIUS
VSB - VISIBILITY IN STATUTE MILES
WCI - WIND CHILL INDEX
HX  - HEAT INDEX





USA.gov is the U.S. government's official web portal to all federal, state and local government web resources and services.